Regional Weather Roundup
Issued by NWS

Home | Current Version | Previous Version | Text Only | Print | Product List | Glossary On
Versions: 1 2 3 4 5 6 7 8 9 10 11 12 13 14 15 16 17 18 19 20 21 22 23 24 25 26 27 28 29 30 31 32 33 34 35 36 37 38 39 40 41 42 43 44 45 46 47 48 49 50
000
ASUS44 KFWD 061503
RWRTX
NORTH TEXAS HOURLY WEATHER ROUNDUP
NATIONAL WEATHER SERVICE FORT WORTH TX
1000 AM CDT WED MAY 06 2015

NOTE: "FAIR" INDICATES FEW OR NO CLOUDS BELOW 12,000 FEET WITH NO
SIGNIFICANT WEATHER AND/OR OBSTRUCTIONS TO VISIBILITY.

TXZ118-119-061600-
DALLAS/FORT WORTH METROPLEX

CITY           SKY/WX    TMP DP  RH WIND       PRES   REMARKS
DFW AIRPORT    CLOUDY    71  67  87 S15       29.96R
DALLAS LOVE    CLOUDY    72  66  81 S17G25    29.97S
FTW MEACHAM    CLOUDY    73  67  81 S16G24    29.95S
DAL-EXECUTIVE  CLOUDY    71  67  87 SE12G18   29.97S
FTW-ALLIANCE   CLOUDY    71  67  87 S13       29.95S
FTW-NAS-JRB    CLOUDY    73  67  81 S15       29.96S
FTW-SPINKS     CLOUDY    72  66  83 SE9       29.97S
ARLINGTON      CLOUDY    73  65  75 SE15G23   29.97R
GRAND PRAIRIE  CLOUDY    70  68  94 SE9G21    29.98S
LANCASTER      CLOUDY    70  66  87 SE12      29.99S
$$

TXZ091>094-102>105-117-120-121-131>134-061600-
NORTH CENTRAL TEXAS

CITY           SKY/WX    TMP DP  RH WIND       PRES   REMARKS
SHRMAN/DENISON CLOUDY    71  68  92 SE16G22   29.99S
GAINESVILLE    CLOUDY    68  66  93 SE13      29.98S FOG
BOWIE          CLOUDY    69  66  89 S13       29.94S
BRIDGEPORT     CLOUDY    71  68  90 S13       29.96S
DECATUR        CLOUDY    69  67  92 S12G17    29.96S
DENTON         CLOUDY    70  67  90 S13       29.96R
MCKINNEY       CLOUDY    70  67  90 S16       29.98R
GREENVILLE     CLOUDY    73  64  73 SE14      30.00R
ROCKWALL       CLOUDY    71  67  88 S12G17    29.98R
TERRELL        CLOUDY    75  67  76 S16       30.00R
WAXAHACHIE     CLOUDY    71  69  95 S10       29.99R
CLEBURNE       PTSUNNY   72  70  94 S10G16    29.98S
GRANBURY         N/A     73  66  80 SE10      29.97S
$$

TXZ083>090-098>101-113>116-127>130-139>142-154-155-061600-
WESTERN NORTH TEXAS

CITY           SKY/WX    TMP DP  RH WIND       PRES   REMARKS
WICHITA FALLS  PTSUNNY   74  67  78 S21G26    29.89S
WF-KICKAPOO    PTSUNNY   75  68  78 S18G25    29.91F
VERNON         CLOUDY    73  64  74 S18       29.88S
ABILENE        PTSUNNY   76  65  68 S20       29.92S
ABILENE-DYESS  PTSUNNY   76  65  68 S21       29.90S
BRECKENRIDGE   PTSUNNY   76  66  71 S14G24    29.92F
GRAHAM         CLOUDY    74  68  81 S13       29.91S
MINERAL WELLS  CLOUDY    72  66  81 S21       29.94R
STEPHENVILLE   CLOUDY    70  66  87 S10       29.98S
COMANCHE       CLOUDY    73  69  87 S13G21    29.96S
COLEMAN          N/A     76  67  74 S14G22    29.95S
BRADY          CLOUDY    73  66  78 SE14      29.95R
$$

TXZ143>147-156>162-174-175-061600-
CENTRAL TEXAS

CITY           SKY/WX    TMP DP  RH WIND       PRES   REMARKS
WACO           PTSUNNY   74  67  78 S13       29.97R
WACO-TSTC      SUNNY     73  66  78 S12G17    29.97S
WACO-MCGREGOR  PTSUNNY   75  66  73 S17       29.97F
HILLSBORO      PTSUNNY   73  67  82 SE10G17   29.97S
CORSICANA      CLOUDY    72  67  84 S10       30.00R
MEXIA          CLOUDY    72  69  90 SE13G21   29.98S
HEARNE         PTSUNNY   72  67  84 SE10G20   29.99R
CAMERON        CLOUDY    71  68  90 S12       29.98R
TEMPLE         CLOUDY    73  64  73 SE16      29.96S
KILLEEN        CLOUDY    72  70  92 S14       29.96S
KILLEEN-SKYLRK CLOUDY    72  64  78 SE10G16   29.97S
FORT HOOD      CLOUDY    72  69  90 SE15      29.96S
GATESVILLE     PTSUNNY   73  68  83 S8        29.98S
HAMILTON       CLOUDY    71  71 100 S14G21    29.98S
LAMPASAS       CLOUDY    76  71  85 S12       29.96S
$$

TXZ095>097-106>112-122>126-135>138-148>153-164>167-061600-
EAST TEXAS

CITY           SKY/WX    TMP DP  RH WIND       PRES   REMARKS
PARIS            N/A    N/A N/A N/A MISG        N/A
SULPHUR SPRNGS CLOUDY    72  65  79 S9        30.03R
MOUNT PLEASANT PTSUNNY  N/A N/A N/A SE5       30.04R
GILMER         CLOUDY    72  65  80 SE14G20   30.02R
MINEOLA        PTSUNNY   73  70  88 S5        30.01S
TYLER          PTSUNNY   75  66  73 SE16      29.99F
LONGVIEW       PTSUNNY   74  65  73 SE14      30.03R
MARSHALL       PTSUNNY   76  67  74 SE8       30.06S
ATHENS         CLOUDY    72  68  88 S12       29.99R
PALESTINE      MOSUNNY   73  69  86 SE9G17    30.01R
JACKSONVILLE   CLOUDY    70  66  87 SE12      30.05R
HENDERSON      CLOUDY    73  66  77 S13       30.04F
NACOGDOCHES    CLOUDY    70  64  83 SE9       30.03R
LUFKIN         CLOUDY    70  66  87 SE8       30.03S
$$

SUPPLEMENTAL OBSERVATIONS (CENTRAL)

CITY           SKY/WX    TMP DP  RH WIND       PRES   REMARKS
$$

SUPPLEMENTAL OBSERVATIONS (WEST)

CITY           SKY/WX    TMP DP  RH WIND       PRES   REMARKS
$$

SUPPLEMENTAL OBSERVATIONS (EAST)

CITY           SKY/WX    TMP DP  RH WIND       PRES   REMARKS
$$

SUPPLEMENTAL OBSERVATIONS ARE A COLLECTION OF AUTOMATED INSTRUMENTS
THAT ARE MAINTAINED BY A VARIETY OF FEDERAL AND STATE AGENCIES.
CERTAIN ELEMENTS...SUCH AS HUMIDITY VALUES AND SUSTAINED WIND
SPEEDS...MAY BE APPROXIMATED.



USA.gov is the U.S. government's official web portal to all federal, state and local government web resources and services.